#timestamp,LO_Frequency,Hit 
1504987215.1,286047003.7,N
1504987235.9,286047007.2,N
1504987255.7,286047010.5,N
1504987275.5,286047009.8,N
1504987295.4,286047008.6,N
1504987315.2,286047006.0,N
1504987335.0,286047004.8,N
1504987335.9,286047004.8,N
1504987355.8,286047005.5,N
1504987375.6,286047001.4,N
1504987395.4,286047002.6,N
1504987415.3,286046998.1,N
1504987435.1,286046997.3,N
1504987436.0,286046997.3,N
1504987455.8,286046996.3,N
1504987475.7,286046993.4,N
1504987495.5,286046992.4,N
1504987515.3,286046991.3,N
1504987535.2,286046986.9,N
1504987555.9,286046988.6,N
1504987575.7,286046989.7,N
1504987595.5,286046990.5,N
1504987615.4,286046992.8,N
1504987635.2,286046990.0,N
1504987655.0,286046986.4,N
1504987655.9,286046986.4,N
1504987675.8,286046986.5,N
1504987695.6,286046985.2,N
1504987715.4,286046982.6,N
1504987735.3,286046981.6,N
1504987755.1,286046979.9,N
1504987775.8,286046978.2,N
1504987795.7,286046980.2,N
1504987815.5,286046980.2,N
1504987835.3,286046977.5,N
1504987855.2,286046974.6,N
1504987875.9,286046972.8,P
1504987895.7,286046986.3,N
1504987915.6,286046982.7,N
1504987935.4,286046982.7,N
1504987955.2,286046983.5,N
1504987975.1,286046986.0,N
1504987976.0,286046986.0,N
1504987995.8,286046988.6,N
1504988015.6,286046987.4,N
1504988035.4,286046987.2,N
1504988055.3,286046989.0,N
1504988075.1,286046990.0,N
1504988095.8,286046987.7,N
1504988115.7,286046984.2,P
1504988135.5,286046999.8,N
1504988155.3,286047004.8,N
1504988175.2,286047006.3,N
1504988195.9,286047010.4,N
1504988215.7,286047014.7,N
1504988235.6,286047020.0,N
1504988255.4,286047019.1,N
1504988275.2,286047020.2,N
1504988295.1,286047018.9,N
1504988296.0,286047018.9,N
1504988315.8,286047021.4,N
1504988335.6,286047021.3,N
1504988355.5,286047019.4,N
1504988375.3,286047023.6,N
1504988395.1,286047025.0,N
1504988415.8,286047023.4,N
1504988435.7,286047025.9,N
1504988455.5,286047026.7,N
1504988475.3,286047021.2,N
1504988495.2,286047020.1,N
1504988515.9,286047018.3,N
1504988535.7,286047017.8,N
1504988555.6,286047018.0,N
1504988575.4,286047016.1,N
1504988595.2,286047020.9,N
1504988615.1,286047020.3,N
1504988616.0,286047020.3,N
1504988635.8,286047016.2,N
1504988655.6,286047017.1,N
1504988675.5,286047018.4,N
1504988695.3,286047016.7,N
1504988715.1,286047014.2,N
1504988735.9,286047013.1,P
1504988755.7,286046993.3,N
1504988775.5,286046997.8,N
1504988795.4,286046993.9,N
1504988815.2,286046993.5,N
1504988835.0,286046997.6,N
1504988835.9,286046997.6,N
1504988855.7,286046997.5,N
1504988875.6,286046997.3,N
1504988895.4,286046998.0,N
1504988915.2,286046995.2,N
1504988935.1,286046999.2,N
1504988936.0,286046999.2,N
1504988955.8,286046999.2,N
1504988975.6,286046997.8,N
1504988995.5,286046997.9,N
1504989015.3,286046995.0,N
1504989035.1,286046995.9,N
1504989055.9,286046994.5,N
1504989075.7,286046991.9,N
1504989095.5,286046992.1,N
1504989115.4,286046992.4,N
1504989135.2,286046992.4,N
1504989155.0,286046996.0,N
1504989155.9,286046996.0,N
1504989175.7,286046995.0,N
1504989195.6,286046995.6,N
1504989215.4,286046993.5,N
1504989235.2,286046992.5,N
1504989255.1,286046989.4,N
1504989256.0,286046989.4,N
1504989275.8,286046986.4,P
1504989295.7,286046989.1,N
1504989315.5,286046991.3,N
1504989335.3,286046989.4,P
1504989355.2,286046997.7,P
1504989375.9,286046997.7,N
1504989395.7,286047000.5,N
1504989415.6,286046996.9,N
1504989435.4,286047000.4,N
1504989455.2,286047001.9,N
1504989475.0,286046999.7,N
1504989475.9,286046999.7,N
1504989495.8,286047001.1,N
1504989515.6,286047000.6,N
1504989535.4,286047000.1,N
1504989555.3,286047000.8,N
1504989575.1,286046996.7,N
1504989595.8,286046994.3,N
1504989615.7,286046991.7,N
1504989635.5,286046991.8,N
1504989655.3,286046994.6,N
1504989675.2,286046994.7,N
1504989695.9,286046993.9,N
1504989715.7,286046992.4,N
1504989735.6,286046993.1,N
1504989755.4,286046992.4,N
1504989775.2,286046992.3,N
1504989795.0,286046992.2,N
1504989795.9,286046992.2,N
1504989815.8,286046992.1,N
1504989835.6,286046994.0,N
1504989855.4,286046992.1,N
1504989875.3,286046991.8,N
1504989895.1,286046990.1,N
1504989915.8,286046991.4,N
1504989935.7,286046990.9,N
1504989955.5,286046989.0,N
1504989975.3,286046988.5,P
1504989995.2,286046999.6,N
1504990015.9,286046991.4,N
1504990035.7,286046988.3,N
1504990055.6,286046991.3,N
1504990075.4,286046995.8,N
1504990095.2,286046997.9,N
1504990115.1,286046998.1,N
1504990116.0,286046998.1,N
1504990135.8,286047003.6,N
1504990155.6,286047007.5,N
1504990175.4,286047007.4,N
1504990195.3,286047006.5,N
1504990215.1,286047010.8,N
1504990235.8,286047011.7,N
1504990255.7,286047013.1,N
1504990275.5,286047014.5,N
1504990295.3,286047021.6,N
1504990315.2,286047018.9,N
1504990335.9,286047021.4,N
1504990355.7,286047019.6,N
1504990375.6,286047018.5,N
1504990395.4,286047017.4,N
1504990415.2,286047017.6,N
1504990435.1,286047019.4,N
1504990436.0,286047019.4,N
1504990455.8,286047021.2,N
1504990475.6,286047019.2,N
1504990495.4,286047019.1,N
1504990515.3,286047020.3,N
1504990535.1,286047019.7,N
1504990555.8,286047023.4,N
1504990575.7,286047023.1,N
1504990595.5,286047021.2,N
1504990615.3,286047021.2,N
1504990635.2,286047021.7,N
1504990655.9,286047025.0,P
1504990675.7,286047009.9,N
1504990695.6,286047009.9,N
1504990715.4,286047010.8,N
1504990735.2,286047010.4,N
1504990755.1,286047009.6,N
1504990756.0,286047009.6,N
1504990775.8,286047008.3,N
1504990795.6,286047007.3,N
